Regional Weather Roundup
Issued by NWS

Home | Current Version | Previous Version | Graphics & Text | Print | Product List | Glossary On
Versions: 1 2 3 4 5 6 7 8 9 10 11 12 13 14 15 16 17 18 19 20 21 22 23 24 25 26 27
000
ASUS45 KCYS 170810
RWRWY

WYOMING REGIONAL WEATHER ROUNDUP
NATIONAL WEATHER SERVICE CHEYENNE WY
100 AM MST TUE JAN 17 2017

NOTE:  "FAIR" INDICATES FEW OR NO CLOUDS BELOW 12,000 FEET
WITH NO SIGNIFICANT WEATHER AND/OR OBSTRUCTIONS TO VISIBILITY.

WYZ001-170900-
YELLOWSTONE NATIONAL PARK

CITY           SKY/WX    TMP DP  RH WIND       PRES   REMARKS
LK YELLOWSTONE   N/A     -9 -12  87 CALM      30.16F
W YELLOWSTONE  NOT AVBL

$$
WYZ002>013-054>058-071-098>099-170900-
NORTHERN WYOMING

CITY           SKY/WX    TMP DP  RH WIND       PRES   REMARKS
JACKSON        FAIR      -9 -13  84 N7        30.21F WCI -24
CODY           FAIR       7   3  84 CALM      30.01F
GREYBULL       FAIR     -13 -18  78 CALM      30.11F
WORLAND        FAIR      -4  -6  91 S3        30.07F
SHERIDAN       FAIR       8   0  69 CALM      29.97F
BUFFALO        FAIR      28   3  34 CALM      29.97F
GILLETTE       FAIR      15   7  70 S6        30.00F WCI   6
HULETT         FAIR      18   9  68 SW10      30.01F WCI   6
NEWCASTLE      FAIR      18   9  68 NE7       30.04F WCI   8

$$
WYZ014>020-022>026-101>103-170900-
CENTRAL WYOMING

CITY           SKY/WX    TMP DP  RH WIND       PRES   REMARKS
BIG PINEY      ICE FOG  -13 -17  82 N5        30.16F VSB 1/2 WCI -25
PINEDALE       FAIR     -18 -26  69 W8        30.16S WCI -37
DUBOIS         NOT AVBL
LANDER         FAIR       6   2  83 CALM      30.07F
RIVERTON       FAIR       0  -2  91 CALM      30.09F
CASPER         FAIR      20   7  57 SW22      30.04F WCI   3
DOUGLAS        FAIR      11   6  81 W3        30.06S

$$
WYZ021-027>030-104>119-170900-
SOUTHERN WYOMING

CITY           SKY/WX    TMP DP  RH WIND       PRES   REMARKS
EVANSTON       FAIR       4  -2  76 S7        30.15F WCI  -8
ROCK SPRINGS   FAIR      -6 -11  79 SW6       30.15F HAZE    WCI -19
RAWLINS        FAIR      -1  -7  75 CALM      30.12F
LARAMIE        FOG       -1  -3  91 W7        30.06F VSB 1/4 WCI -14
CHEYENNE       FAIR      15   8  73 W7        30.05F WCI   5
TORRINGTON     FAIR      19  13  77 W5        30.06F WCI  12

$$




USA.gov is the U.S. government's official web portal to all federal, state and local government web resources and services.